Temp
15 15 15 15 14 14 14 14 13 13 13 12 12 12 12 12 11 11 12 12 12 12 12 12 11 11 12 12 11 11 11 11 11 11 11 11 10 10 9 10 10 10 10
15 15 15 15 14 14 14 14 14 13 13 13 12 12 12 12 12 12 12 12 12 12 12 12 12 11 11 11 11 11 11 11 11 12 11 11 11 10 10 9 9 9 9
15 15 15 14 14 14 14 14 14 13 13 13 13 12 12 12 12 12 13 13 13 12 12 11 12 11 12 11 11 11 11 11 11 11 11 11 11 10 10 10 9 9 9
16 15 15 15 15 14 14 14 13 13 13 13 13 12 12 12 12 12 12 12 12 11 11 11 11 10 11 11 11 11 11 10 10 10 10 10 11 10 10 10 10 9 7
16 16 16 15 15 14 14 14 13 13 13 13 13 13 12 12 12 12 11 11 11 10 10 10 10 10 10 10 10 11 10 10 10 10 10 10 10 10 9 9 9 9 9
17 17 16 16 15 15 14 14 13 13 13 13 13 13 12 11 12 11 11 10 11 10 10 9 9 8 8 10 10 10 9 10 10 10 9 9 9 10 10 9 9 8 8
17 17 17 17 16 15 15 14 13 13 13 13 12 12 11 12 12 11 11 10 10 9 9 8 7 7 8 8 8 8 8 9 8 7 8 8 9 8 9 9 9 8 8
18 17 17 17 17 16 15 14 14 13 13 12 11 11 10 10 11 11 11 10 10 8 7 7 7 7 7 7 8 8 7 6 6 7 7 6 6 7 7 7 7 7 7
18 18 18 17 17 16 16 15 14 13 13 12 12 10 10 9 11 10 10 9 9 7 7 7 7 7 7 7 7 6 6 6 5 6 6 6 6 5 5 5 6 5 6
19 18 18 18 17 18 16 15 14 14 13 13 14 12 10 11 10 10 10 9 8 7 7 7 8 8 7 7 6 5 6 5 5 5 4 4 4 4 4 4 4 4 4
20 19 19 18 18 18 17 16 15 14 13 13 13 14 12 11 10 9 10 9 7 6 7 7 6 6 6 6 6 6 6 6 5 4 4 4 3 3 3 2 1 3 3
19 19 19 19 18 18 16 16 15 14 13 14 13 12 11 10 9 9 9 8 7 7 7 7 7 6 7 6 6 6 5 4 3 3 3 4 2 1 1 2 3 2 2
20 19 19 17 17 17 17 16 15 14 13 13 12 11 11 9 9 9 8 7 7 7 6 6 7 7 7 7 7 6 5 5 3 2 3 2 2 2 2 2 2 2 3
19 19 19 18 17 18 16 14 13 12 13 13 12 11 10 8 8 8 7 7 7 6 7 7 8 7 7 6 6 6 4 4 3 2 2 1 1 2 2 2 2 2 1
18 18 17 17 15 16 15 14 13 13 13 12 11 10 8 7 7 7 7 6 7 7 7 7 6 6 5 5 5 4 4 3 2 1 1 1 2 2 2 2 1 1 1
17 17 16 15 14 12 13 11 12 12 12 10 10 9 7 7 7 6 7 7 7 7 7 5 5 5 4 4 3 4 3 1 1 1 1 1 1 2 2 1 1 1 1
15 13 12 12 13 13 13 11 11 11 10 9 8 7 7 7 7 7 7 7 7 6 5 4 5 5 4 3 3 3 3 1 1 1 1 1 1 1 1 1 1 1 2
11 11 12 9 9 10 11 11 12 11 8 8 7 7 7 6 6 6 6 6 6 5 5 5 4 3 3 2 1 1 1 1 1 2 1 1 0 0 1 1 1 1 2
11 10 10 9 10 11 9 10 10 9 8 7 7 7 6 6 6 6 6 6 5 5 4 4 4 4 2 1 1 1 1 2 1 2 1 1 1 1 1 1 1 1 1
9 9 10 10 8 8 9 8 8 8 7 7 7 6 6 5 5 5 5 4 4 4 4 4 4 3 2 1 1 1 2 1 1 1 1 1 1 1 1 1 1 1 2
8 9 9 10 10 8 8 8 8 7 6 6 6 5 5 5 4 4 4 4 3 3 3 3 2 2 2 2 1 1 1 1 1 2 1 2 1 1 1 1 1 2 1
9 9 9 10 7 7 7 7 6 6 6 5 5 4 4 3 3 3 3 3 3 3 2 2 2 1 1 1 1 1 1 1 1 1 1 1 2 2 2 1 1 2 2
8 8 7 6 6 6 6 5 5 5 4 4 4 3 3 3 3 3 3 3 3 2 2 1 1 1 1 1 0 0 0 0 0 0 1 1 1 1 1 1 1 1 2
7 6 6 5 5 6 5 4 4 4 3 3 3 3 3 3 3 2 2 2 1 1 1 1 1 1 1 0 -0 -0 -1 -1 -0 -0 -0 0 -0 0 1 1 1 1 2
5 6 5 5 5 4 4 3 3 3 3 3 2 2 2 2 2 2 1 1 0 0 -0 -0 0 0 -0 -1 -1 -1 -1 -1 -1 -1 -1 -1 -2 -1 -1 -0 -0 0 1
5 4 4 4 4 3 3 3 3 3 2 2 2 2 2 2 1 0 -0 -0 -1 -1 -1 -1 -1 -1 -1 -1 -1 -2 -2 -2 -2 -2 -2 -2 -2 -1 -1 -1 -1 -2 -0
Height
3182 3184 3187 3190 3191 3192 3194 3195 3196 3197 3197 3198 3199 3200 3200 3199 3199 3199 3199 3198 3197 3196 3196 3194 3192 3190 3189 3187 3184 3182 3179 3176 3175 3174 3170 3167 3165 3162 3159 3157 3155 3154 3152
3180 3182 3184 3186 3187 3189 3190 3192 3193 3194 3194 3195 3195 3196 3197 3197 3197 3197 3196 3194 3193 3191 3189 3188 3187 3185 3184 3182 3181 3179 3176 3172 3169 3167 3166 3163 3159 3155 3154 3151 3149 3147 3145
3177 3178 3180 3181 3183 3185 3187 3189 3190 3191 3191 3192 3192 3193 3194 3194 3194 3194 3193 3191 3190 3189 3186 3183 3182 3180 3178 3177 3176 3174 3171 3168 3164 3160 3158 3155 3152 3150 3146 3145 3143 3141 3139
3173 3174 3175 3177 3179 3181 3184 3185 3186 3187 3187 3188 3190 3190 3190 3190 3189 3189 3188 3188 3186 3184 3183 3179 3176 3174 3172 3170 3169 3167 3166 3164 3159 3156 3152 3148 3143 3142 3139 3137 3136 3134 3132
3167 3169 3171 3173 3175 3176 3178 3180 3182 3182 3183 3185 3188 3187 3187 3187 3187 3185 3184 3182 3180 3178 3175 3174 3171 3168 3166 3165 3162 3160 3158 3156 3153 3149 3145 3141 3137 3133 3131 3128 3124 3125 3124
3161 3163 3167 3169 3170 3172 3174 3175 3176 3178 3181 3183 3184 3184 3182 3182 3181 3180 3178 3176 3174 3172 3169 3167 3164 3161 3160 3158 3156 3154 3151 3148 3147 3143 3140 3135 3131 3125 3121 3117 3116 3113 3113
3155 3158 3159 3162 3164 3166 3167 3168 3171 3175 3177 3181 3182 3180 3179 3177 3178 3175 3173 3169 3167 3164 3162 3160 3158 3152 3152 3149 3147 3145 3143 3140 3137 3132 3128 3126 3122 3117 3113 3108 3105 3104 3102
3147 3151 3153 3155 3157 3159 3160 3162 3165 3170 3174 3177 3178 3178 3177 3175 3171 3170 3168 3164 3160 3157 3155 3153 3151 3147 3144 3141 3139 3136 3133 3129 3124 3121 3116 3112 3109 3106 3101 3097 3092 3089 3090
3138 3142 3145 3146 3147 3150 3151 3154 3159 3159 3160 3167 3170 3172 3172 3166 3162 3161 3160 3157 3152 3149 3147 3144 3142 3139 3136 3133 3129 3125 3121 3118 3113 3106 3104 3102 3096 3091 3088 3084 3082 3080 3076
3129 3132 3135 3136 3137 3139 3143 3147 3149 3153 3155 3156 3155 3157 3154 3152 3152 3151 3151 3147 3144 3142 3138 3136 3135 3132 3127 3122 3118 3112 3107 3103 3097 3093 3091 3088 3084 3080 3077 3073 3070 3067 3066
3117 3121 3126 3130 3131 3133 3137 3140 3144 3146 3147 3148 3146 3144 3146 3144 3141 3143 3142 3139 3139 3136 3134 3130 3120 3120 3117 3112 3107 3101 3098 3092 3087 3081 3077 3074 3073 3070 3067 3064 3060 3057 3055
3107 3110 3114 3121 3120 3123 3127 3131 3135 3137 3137 3139 3138 3136 3135 3133 3134 3134 3131 3130 3131 3129 3124 3119 3115 3112 3107 3100 3094 3089 3084 3079 3075 3070 3065 3063 3061 3058 3056 3051 3049 3047 3044
3098 3101 3102 3106 3109 3114 3117 3122 3123 3126 3130 3130 3128 3125 3126 3125 3125 3124 3124 3123 3122 3118 3115 3110 3106 3100 3095 3089 3082 3077 3072 3068 3066 3064 3059 3054 3051 3047 3044 3041 3039 3037 3034
3087 3089 3091 3095 3099 3103 3108 3111 3117 3119 3121 3121 3120 3119 3118 3117 3117 3117 3116 3114 3112 3108 3104 3098 3094 3088 3082 3077 3073 3067 3063 3060 3057 3055 3052 3047 3043 3040 3037 3033 3030 3029 3024
3079 3080 3082 3085 3088 3091 3097 3102 3107 3113 3114 3114 3114 3112 3112 3112 3111 3109 3108 3105 3101 3097 3093 3088 3083 3078 3074 3069 3064 3061 3056 3052 3049 3047 3043 3039 3037 3033 3029 3024 3021 3018 3015
3072 3073 3074 3077 3083 3088 3093 3101 3104 3107 3108 3109 3107 3106 3106 3106 3105 3102 3099 3095 3091 3087 3082 3078 3072 3068 3065 3063 3058 3052 3049 3047 3044 3040 3037 3033 3029 3025 3021 3017 3014 3010 3006
3064 3069 3073 3077 3081 3082 3086 3093 3099 3101 3101 3103 3103 3102 3100 3098 3096 3093 3090 3086 3081 3077 3074 3070 3065 3061 3058 3054 3051 3047 3043 3041 3038 3034 3031 3025 3021 3017 3014 3011 3007 3004 3000
3059 3067 3072 3076 3080 3083 3083 3086 3087 3092 3097 3095 3096 3094 3093 3090 3087 3084 3081 3077 3073 3069 3066 3062 3058 3055 3053 3048 3047 3041 3040 3037 3034 3030 3023 3017 3013 3010 3008 3003 3001 2998 2993
3058 3065 3068 3073 3076 3079 3078 3081 3082 3084 3087 3087 3086 3085 3083 3081 3079 3076 3073 3070 3066 3063 3060 3057 3054 3051 3049 3049 3045 3041 3038 3035 3030 3025 3020 3015 3010 3006 3002 2998 2995 2992 2987
3059 3064 3064 3066 3073 3078 3075 3077 3078 3078 3078 3078 3077 3076 3076 3075 3072 3069 3066 3063 3061 3057 3056 3053 3052 3049 3047 3046 3044 3040 3034 3031 3028 3024 3020 3014 3009 3003 2998 2994 2989 2985 2980
3059 3061 3064 3066 3069 3074 3073 3072 3071 3071 3072 3071 3070 3070 3069 3067 3065 3062 3059 3058 3056 3055 3053 3052 3047 3046 3046 3042 3042 3037 3032 3029 3026 3022 3018 3013 3008 3002 2996 2990 2985 2979 2975
3059 3061 3062 3060 3065 3067 3068 3068 3067 3066 3066 3065 3064 3064 3063 3061 3059 3056 3055 3054 3053 3051 3051 3048 3044 3044 3042 3040 3038 3034 3030 3026 3023 3020 3016 3011 3006 3000 2994 2988 2982 2976 2972
3059 3059 3058 3059 3062 3063 3062 3063 3062 3062 3060 3061 3061 3060 3057 3056 3056 3054 3053 3050 3049 3048 3046 3044 3039 3039 3037 3036 3034 3031 3027 3024 3021 3017 3013 3009 3004 2999 2993 2987 2981 2975 2969
3057 3057 3058 3059 3059 3059 3058 3059 3058 3058 3058 3057 3056 3055 3055 3054 3053 3052 3050 3048 3045 3042 3041 3040 3036 3034 3033 3031 3030 3028 3024 3021 3018 3014 3010 3007 3002 2998 2992 2987 2980 2974 2968
3052 3051 3053 3054 3055 3054 3055 3056 3055 3054 3053 3053 3054 3053 3052 3052 3050 3049 3048 3043 3045 3039 3035 3034 3032 3029 3029 3028 3025 3023 3021 3018 3015 3012 3009 3004 3001 2996 2991 2986 2980 2974 2968
3051 3052 3053 3053 3053 3053 3053 3053 3051 3051 3052 3051 3050 3050 3048 3045 3044 3044 3044 3039 3037 3037 3032 3031 3028 3026 3025 3024 3022 3020 3018 3016 3013 3010 3007 3003 3000 2995 2990 2985 2980 2975 2969
Wind_Speed
21 20 21 21 21 22 19 17 15 15 14 13 12 13 13 14 16 17 18 19 20 22 25 24 21 21 20 20 21 22 24 26 26 25 28 28 26 25 27 29 28 26 26
20 20 20 21 22 23 20 18 18 18 19 17 17 17 16 16 17 17 18 19 19 19 21 26 27 26 25 26 25 24 25 26 29 30 29 30 32 31 27 29 30 29 28
16 21 23 24 24 23 22 21 22 22 22 22 22 20 19 18 18 18 19 20 22 26 26 29 31 30 31 30 28 28 27 30 31 35 36 36 37 34 34 30 30 31 31
21 22 21 25 25 25 23 24 24 24 25 26 24 22 22 22 22 22 23 22 27 27 29 32 33 30 30 31 29 28 30 32 34 35 37 38 40 40 36 36 30 30 29
28 27 23 19 23 25 27 26 26 27 27 27 24 26 26 27 25 25 22 25 29 30 30 33 32 29 30 33 30 33 33 35 37 40 38 38 39 39 35 34 33 30 28
31 28 25 25 26 26 26 28 30 29 27 25 23 24 27 26 26 26 22 24 25 30 34 33 30 30 30 30 31 33 34 37 37 37 35 36 37 40 41 40 35 36 32
36 33 33 30 29 31 29 30 30 28 29 22 21 25 26 24 26 31 34 34 34 32 34 29 26 31 30 32 35 36 37 38 38 38 36 35 38 40 42 43 43 39 38
39 38 37 36 35 35 37 34 31 27 21 20 21 26 29 27 29 31 36 42 45 35 32 31 30 32 36 39 39 40 40 41 42 40 41 39 37 40 43 45 47 46 40
41 39 39 39 40 41 40 40 34 36 30 23 19 20 29 35 34 36 41 42 44 33 33 33 34 39 44 44 42 44 46 45 41 43 40 36 39 41 42 45 45 45 44
38 41 41 42 43 41 43 41 42 39 33 29 43 36 25 37 37 42 42 36 37 32 36 38 40 43 44 45 47 48 49 47 47 46 41 39 37 37 40 43 45 46 46
41 45 38 38 41 41 40 42 41 39 37 33 31 41 31 25 28 38 38 35 32 33 34 38 45 45 46 48 50 51 49 50 48 46 42 38 34 32 34 35 38 43 44
31 39 36 44 42 42 41 41 40 41 39 36 37 34 31 25 30 34 33 32 33 36 39 41 45 48 50 50 51 50 49 47 43 36 33 33 33 31 31 35 34 35 39
32 37 41 41 38 38 41 41 44 41 35 40 33 32 33 29 29 31 31 33 36 39 39 43 46 48 48 49 49 44 37 35 31 30 32 33 33 30 27 27 28 29 34
33 35 33 37 35 37 42 38 35 33 32 30 31 32 29 27 27 29 32 34 35 39 41 45 44 45 44 38 36 37 34 33 30 28 29 26 27 29 32 31 32 29 30
31 33 33 36 39 41 42 42 36 32 30 30 31 29 28 28 29 31 32 34 36 36 36 37 36 34 35 35 33 32 31 30 26 27 29 28 29 26 31 28 28 29 32
31 28 29 33 38 37 36 31 25 23 27 28 29 28 28 29 30 30 32 33 32 32 32 30 29 29 31 29 26 26 27 24 24 27 26 29 30 29 28 23 23 29 31
25 26 31 36 37 32 22 17 19 25 30 29 27 25 26 29 30 29 28 28 29 28 28 28 28 28 25 23 21 23 22 21 22 25 28 29 28 26 21 20 21 26 22
25 30 30 26 16 8 11 25 33 34 27 25 24 26 28 27 25 25 26 27 26 25 24 23 21 18 17 17 16 16 16 17 20 26 27 24 23 19 22 23 22 25 24
27 25 18 14 17 25 29 31 24 22 24 24 25 25 24 23 22 23 23 22 20 19 16 13 12 11 11 12 12 15 16 19 20 27 29 25 21 24 25 25 23 22 27
11 9 7 7 9 12 16 17 19 22 22 21 21 21 20 19 19 18 15 14 11 9 7 8 10 8 8 11 14 14 16 17 20 21 24 25 23 24 22 24 22 24 22
10 6 8 12 16 17 16 19 19 19 19 19 17 17 17 16 14 11 8 8 7 8 9 9 8 8 10 13 13 15 16 17 18 19 21 22 24 25 23 21 24 21 23
6 11 13 15 14 14 16 17 16 15 15 13 12 12 11 8 7 8 9 9 10 10 9 8 8 10 12 12 14 15 16 17 17 18 19 21 22 25 27 24 24 22 22
15 11 10 9 11 12 12 12 12 11 9 9 9 7 7 10 11 9 8 9 10 10 9 10 10 12 14 15 15 15 15 16 17 19 20 21 22 23 24 26 25 23 20
8 8 8 7 7 8 8 7 5 5 6 5 6 8 10 10 10 11 10 10 10 10 11 12 12 13 15 15 16 15 15 16 17 18 19 20 20 21 22 23 24 28 24
3 4 5 6 6 5 4 3 3 4 6 7 9 10 10 12 12 12 12 11 13 12 11 13 14 15 16 15 15 16 16 16 17 17 18 19 20 21 22 23 24 25 25
2 2 1 2 2 2 3 5 7 8 9 11 11 12 13 14 14 14 15 14 14 14 14 14 14 14 15 15 15 15 14 14 16 17 17 17 17 18 19 21 22 23 25
Wind_Direction
204 206 210 213 214 218 221 223 231 241 251 257 264 268 276 281 286 289 293 296 299 302 303 298 295 303 302 296 313 325 328 325 323 325 322 321 318 302 298 298 298 296 295
221 220 217 218 222 224 228 232 238 247 252 255 261 266 273 282 292 300 299 292 298 298 296 294 297 301 303 303 301 313 319 320 319 324 322 320 313 307 299 296 293 293 291
228 228 227 228 232 235 238 241 245 248 252 256 259 266 272 278 285 290 294 297 304 299 296 295 298 303 304 306 307 310 311 317 317 318 320 317 310 307 306 298 292 289 287
240 239 236 232 235 239 244 248 250 253 253 256 261 266 270 274 275 282 285 289 300 296 292 291 291 295 300 301 302 302 300 305 312 316 313 307 305 308 303 302 299 291 284
243 243 248 249 240 237 242 247 251 253 256 264 274 276 277 277 282 284 286 291 294 289 285 287 286 292 296 298 301 299 299 308 316 316 313 310 305 304 302 298 300 293 286
244 253 254 255 254 243 243 246 251 256 262 269 280 284 281 277 276 273 276 300 307 300 291 279 281 292 299 296 298 299 301 307 308 308 307 303 301 297 299 298 295 293 288
233 239 250 255 255 255 250 249 253 258 263 279 289 289 288 279 275 275 275 288 308 297 281 275 288 293 295 304 305 305 304 305 306 304 302 298 292 288 288 288 288 287 286
233 235 239 247 251 249 253 253 250 255 259 260 278 295 300 283 274 282 288 287 299 298 275 272 280 292 303 311 311 307 305 305 305 303 301 297 287 281 282 282 285 286 283
232 234 237 239 242 244 248 247 246 244 251 248 272 277 275 283 289 294 297 296 296 288 273 275 284 291 299 307 307 306 305 304 302 305 302 293 289 286 283 282 282 285 286
232 231 232 237 240 244 243 240 243 249 255 259 271 309 239 265 270 280 293 296 287 277 277 280 284 294 303 305 306 304 305 308 307 305 302 298 292 283 279 278 280 281 282
236 233 232 243 246 244 240 240 242 244 245 252 285 285 278 260 268 280 288 289 277 273 278 289 295 303 304 305 303 302 303 303 302 299 300 299 293 285 282 280 280 281 281
243 236 228 245 241 241 232 235 236 234 232 260 276 276 263 269 273 278 282 281 272 277 285 289 294 300 302 302 302 304 304 301 300 301 304 302 301 299 293 287 288 283 280
253 245 233 234 228 226 232 235 235 233 240 264 265 257 260 264 270 276 280 277 279 284 289 293 297 300 302 303 306 307 307 308 306 301 301 301 302 301 298 293 290 290 284
266 250 235 229 220 234 224 221 211 224 254 259 256 258 267 269 271 277 278 280 285 289 294 297 299 301 302 304 308 307 307 307 304 300 302 300 305 303 301 296 294 292 293
250 233 223 222 212 219 219 215 221 238 256 255 260 270 272 271 276 280 282 287 292 296 297 299 301 302 303 305 303 305 308 307 303 307 306 305 304 302 311 304 299 297 291
235 225 218 215 205 197 201 218 236 254 258 259 266 268 267 273 279 284 290 293 296 299 301 300 303 304 304 303 307 311 311 312 303 308 308 306 307 306 304 300 299 304 300
220 216 204 196 198 207 216 230 258 263 266 266 265 270 279 283 286 290 293 297 303 305 303 303 302 303 304 307 312 317 322 325 325 321 316 308 305 310 302 310 297 306 312
183 195 200 192 186 244 250 281 284 261 257 267 275 281 284 287 293 296 299 305 305 301 301 305 308 309 311 318 329 341 344 347 343 346 343 335 323 322 322 314 308 305 309
196 200 211 240 276 270 263 264 250 253 264 272 281 285 289 293 294 299 304 302 301 306 311 317 323 329 340 342 350 349 346 354 351 357 358 352 336 331 324 321 313 313 312
181 186 188 195 218 231 237 249 257 266 275 281 284 289 289 291 295 297 296 299 308 318 334 340 336 347 355 344 338 344 352 353 355 354 358 359 349 336 329 326 321 318 318
144 163 211 231 250 260 266 271 278 283 282 285 286 286 289 291 294 299 304 310 314 318 319 321 327 324 327 334 339 342 347 352 353 350 356 355 359 355 334 326 326 330 324
215 236 248 257 265 273 278 278 277 282 283 285 284 280 277 285 298 303 304 299 300 300 301 310 318 318 324 329 332 337 341 345 348 350 354 354 359 1 4 356 345 340 338
284 278 278 273 266 266 271 279 280 279 284 283 282 292 310 308 302 296 290 291 294 294 303 310 318 319 323 325 328 331 336 340 343 349 351 355 3 358 4 8 3 358 349
259 247 250 260 277 286 287 287 284 277 275 288 307 311 304 297 293 294 293 293 290 296 305 310 314 316 318 320 324 327 334 338 343 348 356 354 4 1 2 1 4 10 1
257 298 296 289 291 297 292 287 299 318 324 317 309 302 295 292 294 294 294 293 296 300 304 306 310 313 314 316 319 323 330 336 342 348 356 0 2 4 3 3 4 7 9
358 30 42 34 19 359 348 340 337 330 323 316 308 300 298 298 298 300 299 301 301 303 305 306 307 309 310 312 313 315 320 330 338 344 348 358 358 2 3 7 8 8 8